Location: Newark
(48.5156°N, 1.8989°W)
Time: 17:11:58
(UTC+00:00)

Vanguard 1 Rocket - Pass Details

Date: 24 November 2019
Orbit: 650 x 4226 km, 34.3° (Epoch: 11 December)

Event Time Altitude Azimuth Distance (km) Brightness Sun altitude
Exits shadow 05:34:22 10° 217° (SW) 2,131 9.1 -18.4°
Reaches altitude 10° 05:34:33 10° 214° (SW) 2,105 9.0 -18.4°
Maximum altitude 05:36:31 13° 188° (S) 2,037 9.2 -18.1°
Drops below altitude 10° 05:38:41 10° 163° (SSE) 2,363 9.9 -17.7°
Sets 05:43:14 0° 135° (SE) 3,766 11.5 -17.0°
